National Weather Service United States Department of Commerce

Latest Hourly Weather Roundup

TOPSWRTT 000
TTAA00 KICT 232212

Wichita AWIPS Roundup
National Weather Service Wichita KS
500 PM CDT MON OCT 23 2017

....Central Kansas....
  
CITY           SKY/WX    TMP DP  RH WIND       PRES   REMARKS
RUSSELL        MOSUNNY   66  23  19 NW26G33   30.18R                  
SALINA         SUNNY     68  28  22 N23G36    30.14R                  
GREAT BEND     MOSUNNY   65  25  22 NW23G35   30.20S                  
ELLSWORTH      SUNNY     64  21  19 NW22G31   30.16S                  
MCPHERSON      SUNNY     66  28  24 N29G35    30.15R                  
HAYS           SUNNY     65  21  18 N26G40    30.20S                  

....South Central Kansas....
  
CITY           SKY/WX    TMP DP  RH WIND       PRES   REMARKS
HUTCHINSON     SUNNY     67  27  22 NW24G40   30.15R                  
NEWTON         SUNNY     64  27  24 NW36G43   30.13R                  
KINGMAN        SUNNY     66  27  22 NW17G26   30.17S                  
WICHITA (ICT)  MOSUNNY   68  28  22 N26G36    30.14R                  
JABARA ARPT    SUNNY     67  30  25 NW22G33   30.12S                  
BEECH ARPT     FAIR      67  27  22 N25G31    30.12S                  
MCCONNELL AFB  MOSUNNY   67  27  22 N18G29    30.12S                  
BENTON         FAIR      66  29  25 N22G31    30.12S                  
EL DORADO      FAIR      68  28  22 NW24G32   30.10S                  
AUGUSTA        FAIR      64  30  27 NW23G29   30.12S                  
HARPER           N/A     68  27  21 N16G25    30.18R                  
WELLINGTON     SUNNY     66  36  32 NW15      30.13S                  
WINFIELD       CLOUDY    66  31  27 N23G30    30.14R                  
 
....Southeast Kansas....
  
CITY           SKY/WX    TMP DP  RH WIND       PRES   REMARKS
EUREKA         SUNNY     68  32  26 NW28      30.09S                  
IOLA           FAIR      65  33  29 NW23G31   30.06R                  
CHANUTE        SUNNY     66  32  28 NW18G33   30.06R                  
PARSONS        SUNNY     70  35  27 NW22G31   30.05R                  
COFFEYVILLE    SUNNY     70  37  29 NW22G28   30.04R                  
INDEPENDENCE   SUNNY     70  37  29 NW16G28   30.06R                  
FORT SCOTT     SUNNY     66  34  30 NW18G28   30.02R                  
PITTSBURG      SUNNY     71  43  36 NW9G17    30.00R                  

....Western Kansas....
  
CITY           SKY/WX    TMP DP  RH WIND       PRES   REMARKS
GOODLAND       MOSUNNY   59  18  20 NW28G41   30.31S                  
HILL CITY      SUNNY     66  15  14 NW31G47   30.24S                  
LIBERAL        SUNNY     66  25  21 N25       30.28S                  
GARDEN CITY    PTSUNNY   64  19  17 N31G38    30.29R                  
DODGE CITY     MOSUNNY   65  21  18 N20G35    30.25R                  
PRATT          SUNNY     64  20  18 N20G32    30.21S                  
MEDICINE LODGE   N/A     68  26  20 N17G35    30.19R                  

....Northeast Kansas....
  
CITY           SKY/WX    TMP DP  RH WIND       PRES   REMARKS
CONCORDIA      MOSUNNY   65  26  23 NW25G39   30.12S                  
TOPEKA         MOSUNNY   67  34  29 NW29G37   30.03R                  
MANHATTAN      MOSUNNY   66  29  24 N16G26    30.09R                  
LAWRENCE       MOSUNNY   66  34  30 NW29G38   30.01R                  
OLATHE         MOSUNNY   64  35  34 NW14G35   30.00R                  
EMPORIA        SUNNY     65  31  28 NW28G37   30.08S                  

....Oklahoma....
  
CITY           SKY/WX    TMP DP  RH WIND       PRES   REMARKS
GAGE           SUNNY     70  33  25 N21G28    30.23R                  
PONCA CITY     SUNNY     70  33  25 N21G32    30.12R                  
BARTLESVILLE   MOSUNNY   71  37  28 VRB6      30.07R                  
TULSA          MOSUNNY   75  43  31 NW13      30.04R                  
OKLAHOMA CITY  MOSUNNY   71  41  33 N21       30.12R                  

Note: "fair" indicates few or no clouds below 12,000 feet with no
significant weather and/or obstructions to visibility.